JAWSAT

Satellite information

Favourite Embed

Satellite Type and Status

PAYLOADIN ORBIT

Key statistics

Satellite JAWSAT at a glance.

Uptime

9293

Days in orbit

Revolutions

≈ 14.4

Per day

Orbit

SSO

Sun Synchronous Orbit

Inclination

100.2

Latest

Satellite identification and parameters

Extended collection of information and parameters for JAWSAT.

Object identification

Identified? True

Debris? False

Object name: JAWSAT

International designator: 2000-004A

Object number (NORAD): 26061

Object ID (CCSDS): 26061

Country: UNITED STATES OF AMERICA (US)

Current information (Y/N): Y

RCS size: MEDIUM

Orbital parameters

Period: 99.692 minutes

Inclination: 100.1877 deg

SMA: 7121.988 km

Apoapsis: 766.989 km

Periapsis: 720.717 km

RAAN: 118.5673 deg

Eccentricy: 0.0032485

Argument of periapsis: 136.8176 deg

Mean anomaly: 223.5565 deg

Mean motion: 14.44444598 rev/day

Mean motion (dot): 0.00000431 rev/day2

B* drag term: 0.00014146 1/REarth

Two-line elements (TLE)

Creation date: July 6, 2025, 6:05 p.m.

Reference frame: TEME

Reference center: EARTH

Epoch: July 6, 2025, 9:15 a.m. UTC

TLE line 0: 0 JAWSAT

TLE line 1: 1 26061U 00004A 25187.38584287 .00000431 00000-0 14146-3 0 9994

TLE line 2: 2 26061 100.1877 118.5673 0032485 136.8176 223.5565 14.44444598336991

Live tracking on map

Real-time ground track for satellite JAWSAT.

In-orbit conjunctions

A list of the most updated potential collisions computed for object JAWSAT.

Target Orbit TCA Probability of collision Miss distance Type
SL-8 R/B LEO 2025-05-09 05:46:55 0.0004887601 355.0 (m) ROCKET BODY
FENGYUN 1C DEB SSO 2025-03-01 09:03:45 0.001101456 114.0 (m) DEBRIS
GAOFEN 3 DEB SSO 2024-11-28 20:21:11 0.0002206355 511.0 (m) DEBRIS
IRIDIUM 33 DEB LEO 2024-11-03 06:06:51 0.0001077386 438.0 (m) DEBRIS
NOAA 17 DEB SSO 2024-10-01 18:31:33 0.00043357 513.0 (m) DEBRIS

Associated space launch

The JAWSAT (Joint Air Force Academy / Weber State University Satellite) project was developed by students working alongside aerospace professionals. Initially designed with a pulsed-plasma thruster to train Air Force Academy cadets (see JAWSAT), the mission has since evolved to include the efforts of several universities, local aerospace companies, the Air Force Academy, the Air Force Research Laboratory, and NASA. Utilizing breakthrough technologies, JAWSAT deployed four satellites when it reached orbit. The onboard imaging system recorded the deployment of each payload with its six digital cameras. The first free-flying Academy satellite, FalconSat-1 carried the CHAWS (Charging Hazards and Wake Studies) experiment developed by the Physics Department at the Academy.

JAWSAT was lifted into orbit during the mission ‘Minotaur I | JAWSAT & FalconSat 1’, on board a Minotaur I space rocket.

The launch took place on Jan. 27, 2000, 3:03 a.m. from Space Launch Complex 8.

For more information about the launch, click the button.

Launch to space Minotaur I | JAWSAT & FalconSat 1
Minotaur I | JAWSAT & FalconSat 1

Agency: N/A

Status: Launch Successful

Launch date: Jan. 27, 2000, 3:03 a.m. UTC

Rocket: Minotaur I

Launch pad: Space Launch Complex 8

Location: Vandenberg SFB, CA, USA

...

Latest news about this satellite

There are no fresh news available about this satellite. Check back as we update our databases every day.


Newsletter sign-up

Weekly statistics, charts and insights to help you stay on top of the space industry.